Location: Newark
(38.0892°N, 27.7378°E)
Time: 11:52:40
(UTC+00:00)

N. Korean satellite - Pass Details

Date: 19 December 2019
Orbit: 454 x 508 km, 97.2° (Epoch: 17 January)

Event Time Altitude Azimuth Distance (km) Brightness Sun altitude
Rises 04:19:12 0° 4° (N) 2,502 10.0 -11.7°
Reaches altitude 10° 04:21:19 10° 357° (N) 1,615 9.0 -11.3°
Maximum altitude 04:24:36 43° 285° (WNW) 658 6.8 -10.7°
Drops below altitude 10° 04:27:51 10° 213° (SSW) 1,588 9.1 -10.1°
Sets 04:29:55 0° 207° (SSW) 2,454 10.1 -9.8°
